Weather in Chernaya Rechka

Russia / Ryazan Oblast     53°51′31″N   40°44′39″E
temp.,
°C
wind,
m/s
gust,
m/s
humid.,
%
clouds,
%
prec.,
mm/h
press.,
hPa
HPBL,
m
4 march, thu
thu400:00−2w61294100 0.1 1011660
03:00−3wsw61392100 0.2 1009455
06:00−1wsw81393100 0.0 1006646
09:00−1wsw91691100 0.3 1004620
12:000wsw91686100 0.0 1003826
15:000wsw81388100 0.0 1002890
18:00−1wsw61293100 0.1 1001614
21:00−2w51097100 0.4 1001472
5 march, fri
fri500:00−2w4897100 0.9 1000399
03:00−4nne3697100 1.7 1002244
06:00−6nw3796100 0.4 1004155
09:00−7nw369695 0.4 1007185
12:00−5nw35900 0.0 1008362
15:00−3w35880 0.0 1010547
18:00−7w349214 0.0 101256
21:00−9w349336 0.0 101438
6 march, sat
sat600:00−10wnw239160 0.0 101521
03:00−11wnw129160 0.0 101621
06:00−13n11905 0.0 101621
09:00−11e119112 0.0 101623
12:00−7sse228691 0.0 1016203
15:00−6s118791 0.0 1015222
18:00−8sw1194100 0.0 101521
21:00−10wsw239694 0.1 101621
7 march, sun
sun700:00−9wnw379689 0.2 1016169
03:00−13w349671 0.2 101648
06:00−14sw510910 0.0 1014161
09:00−9sw8168645 0.0 1011460
12:00−5sw101779100 0.0 1007900
15:00−4sw121893100 0.6 10021259
18:00−3wsw111894100 1.8 10001115
21:00−6w61382100 3.1 1002647
8 march, mon
mon800:00−11sw468133 0.0 100381
03:00−11sw5118217 0.0 1002204
06:00−8ssw5129531 0.0 999306
09:00−6sw7149060 0.1 998667
12:00−7wnw101478100 0.5 9991314
15:00−7w10168199 0.6 10031568
18:00−8wnw71383100 0.1 1007933
21:00−12w5118980 0.1 1011204